Skip Page Navigation
NASA JPL Caltech
NASA Logo - Jet Propulsion Laboratory + View the NASA Portal
+ Center for Near-Earth Object Studies
JPL Home Earth Solar System Stars & Galaxies Technology
JPL Solar System Dynamics
BODIES ORBITS EPHEMERIDES TOOLS PHYSICAL DATA DISCOVERY FAQ SITE MAP
JPL Small-Body Database Browser
Search: [ help ]  
180006 (2002 YQ13)
Classification: Main-belt Asteroid          SPK-ID: 2180006
Ephemeris | Orbit Diagram | Orbital Elements | Mission Design | Physical Parameters | Discovery Circumstances | Close-Approach Data ]

[ show orbit diagram ]
Orbital Elements at Epoch 2459200.5 (2020-Dec-17.0) TDB
Reference: JPL 15 (heliocentric ecliptic J2000)
 Element Value Uncertainty (1-sigma)   Units 
e .132724959084719 5.0662e-08  
a 2.775491288808618 2.4031e-08 au
q 2.4071143210615 1.5318e-07 au
i 5.557894317465055 4.7256e-06 deg
node 118.8819371386868 6.1349e-05 deg
peri 344.2575047574463 6.5621e-05 deg
M 315.954266903329 2.3322e-05 deg
tp 2459407.137705957956
(2021-Jul-11.63770596)
0.00011026 TDB
period 1688.91669895912
4.62
2.1934e-05
6.005e-08
d
yr
n .2131543848325191 2.7683e-09 deg/d
Q 3.143868256555736 2.722e-08 au
  Orbit Determination Parameters
   # obs. used (total)      343  
   data-arc span      6627 days (18.14 yr)  
   first obs. used      2002-12-11  
   last obs. used      2021-02-01  
   planetary ephem.      DE441  
   SB-pert. ephem.      SB441-N16  
   condition code      0  
   norm. resid. RMS      .57068  
   source      ORB  
   producer      Otto Matic  
   solution date      2021-Apr-13 21:24:45  

Additional Information
 Earth MOID = 1.42437 au 
 Jupiter MOID = 1.98746 au 
 T_jup = 3.316 
[ show covariance matrix ]

Ephemeris | Orbit Diagram | Orbital Elements | Mission Design | Physical Parameters | Discovery Circumstances | Close-Approach Data ]

Physical Parameter Table
Parameter Symbol Value Units Sigma Reference Notes
absolute magnitude H 16.16   n/a E2021B55  

180006 (2002 YQ13)          Discovered 2002-Dec-31 by LINEAR at Socorro
Reference: 20080321/Numbers.arcLast Updated: 2008-03-26

[ show close-approach data ]
Ephemeris | Orbit Diagram | Orbital Elements | Mission Design | Physical Parameters | Discovery Circumstances | Close-Approach Data ]
ABOUT SSD CREDITS/AWARDS PRIVACY/COPYRIGHT GLOSSARY LINKS
FirstGov 2021-Apr-18 15:48 UT
(server date/time)  
NASA Home Page
Site Manager:   Ryan S. Park
Webmaster  Alan B. Chamberlin